Regional Weather Roundup
Issued by NWS

Home | Current Version | Previous Version | Text Only | Print | Product List | Glossary Off
Versions: 1 2 3 4 5 6 7 8 9 10 11 12 13 14 15 16 17 18 19 20 21 22 23 24 25 26 27 28 29 30 31 32 33 34 35 36 37 38 39 40 41 42 43 44 45 46 47 48 49 50

000
ASUS45 KSLC 261110
RWRUT

UTAH REGIONAL WEATHER ROUNDUP
NATIONAL WEATHER SERVICE SALT LAKE CITY UT
500 AM MDT SAT MAY 26 2018

UTZ001>011-023>025-261200-

NORTHERN UTAH

CITY           SKY/WX    TMP DP  RH WIND       PRES   REMARKS
BRIGHAM CITY   PTCLDY    59  38  44 CALM      29.85R
HILL AFB       PTCLDY    58  34  40 E10       29.87S
LOGAN          CLEAR     44  40  85 N7        29.86R
OGDEN          PTCLDY    57  36  45 S10       29.85R
SALT LAKE CITY CLEAR     65  34  31 SE6       29.84R
TOOELE VALLEY  MOCLDY    55  30  38 S8        29.85S
WENDOVER       PTCLDY    64  36  35 NW9       29.84R
HEBER CITY       N/A     39  32  75 CALM      29.94R
WEST JORDAN    PTCLDY    60  32  34 S8        29.88R

$$

UTZ011>015-024>027-261200-

CENTRAL/NORTHEAST UTAH

CITY           SKY/WX    TMP DP  RH WIND       PRES   REMARKS
PROVO AIRPORT  CLEAR     54  37  52 E5        29.90R
MOAB/CANYONLAN CLEAR     62   9  12 CALM      29.88S
DELTA          CLEAR     52  21  30 SE9       29.91S
PRICE          CLEAR     54  12  18 CALM      29.94S
ROOSEVELT      CLEAR     45  30  57 SW8       29.94S
VERNAL         CLEAR     54  21  27 NW3       29.91S

$$

UTZ013>016-019>022-027-261200-

SOUTHERN UTAH

CITY           SKY/WX    TMP DP  RH WIND       PRES   REMARKS
BRYCE CANYON   CLEAR     33  15  47 W5        30.09S WCI  29
CEDAR CITY     CLEAR     47  19  33 CALM      29.95S
MILFORD        CLEAR     46  19  34 W8        29.92S
ST GEORGE      SUNNY     60  17  18 SE6       29.85S
HANKSVILLE     CLEAR     70  14  11 SW9       29.90S
BLANDING         N/A     53   9  17 CALM      30.12S

$$

REGIONAL REPORTS     COLORADO/ARIZONA

CITY           SKY/WX    TMP DP  RH WIND       PRES   REMARKS
CRAIG, CO      CLEAR     34  28  79 SW5       30.02S WCI  30
GRAND JUNCTION CLEAR     60  17  18 E13       29.92R
RIFLE, CO      CLEAR     46  19  34 S3        30.01R
MONTROSE, CO   CLEAR     53  17  24 SE8       30.05R
CORTEZ, CO     PTCLDY    44  16  32 E9        30.09R
COLORADO CITY    N/A     39  19  45 SE3       29.98S
PAGE, AZ       CLEAR     69  16  13 S6        29.91S
GRAND CANYON   PTCLDY    35   9  33 NE5       30.07S WCI  31
KINGMAN, AZ    CLEAR     63  27  25 W7        29.90S
FLAGSTAFF, AZ  CLEAR     40  17  39 NE3       30.08S

$$

REGIONAL REPORTS    NEVADA/IDAHO/WYOMING

CITY           SKY/WX    TMP DP  RH WIND       PRES   REMARKS
LAS VEGAS, NV  CLEAR     66  37  34 S14G29    29.80S
ELY, NY        CLEAR     41  24  51 S13       29.96S
ELKO, NV       PTCLDY    46  39  76 W3        29.93S
POCATELLO, ID  CLEAR     57  43  59 SW13      29.88F
BURLEY, ID     CLEAR     56  44  64 SW9       29.86S
FORT BRIDGER,    N/A     54  17  23 W9        30.02F
EVANSTON, WY   CLEAR     58  26  29 S3        30.00F
ROCK SPRINGS,  PTCLDY    56  12  17 W3        29.98F

$$



USA.gov is the U.S. government's official web portal to all federal, state and local government web resources and services.